Thief River Falls, MN

9:48 PM CDT on October 19, 2017 (GMT -0500)
Thief River Falls Regional

Weather History for KTVF - October, 2012

Change the Weather History Date:

Saturday, October 13, 2012

  Actual Average Record
Temperature  
Mean Temperature 45 °F -  
Max Temperature 57 °F 51 °F 71 °F (1989)
Min Temperature 33 °F 35 °F 17 °F (1979)
Degree Days  
Heating Degree Days 20    
Moisture  
Dew Point 33 °F    
Average Humidity 65    
Maximum Humidity 81    
Minimum Humidity 48    
Precipitation  
Precipitation 0.00 in - - ()
Sea Level Pressure  
Sea Level Pressure 29.72 in    
Wind  
Wind Speed 9 mph (SSW)    
Max Wind Speed 16 mph    
Max Gust Speed 20 mph    
Visibility 10 miles    
Events      
Averages and records for this station are not official NWS values.
T = Trace of Precipitation, MM = Missing Value Source: NWS Daily Summary

Daily Weather History Graph

Daily Weather History Graph

Search for Another Location

Airport or City:

Trip Planner

Search our weather history database for the weather conditions in past years. The results will help you decide how hot, cold, wet, or windy it might be!

Date:

Astronomy

Oct. 13, 2012 Rise Set
Actual Time 7:41 AM CDT 6:38 PM CDT
Civil Twilight 7:10 AM CDT 7:10 PM CDT
Nautical Twilight 6:34 AM CDT 7:46 PM CDT
Astronomical Twilight 5:58 AM CDT 8:22 PM CDT
Moon 5:26 AM CDT (10/13) 5:27 PM CDT (10/13)
Length of Visible Light 11h 59m
Length of Day
10h 56m
Waning Crescent, 5% of the Moon is Illuminated
Oct 13
Waning Crescent
Oct 15
New
Oct 21
First Quarter
Oct 29
Full
Nov 6
Last Quarter

Hourly Weather History & Observations

Time (CDT) Temp. Windchill Dew Point Humidity Pressure Visibility Wind Dir Wind Speed Gust Speed Precip Events Conditions
12:15 AM 35.6 °F 28.0 °F 23.0 °F 60% 29.82 in 10.0 mi SE 10.4 mph - N/A   Clear
12:55 AM 35.6 °F 29.2 °F 24.8 °F 65% 29.81 in 10.0 mi ESE 8.1 mph - N/A   Clear
1:15 AM 35.6 °F 29.2 °F 24.8 °F 65% 29.81 in 10.0 mi ESE 8.1 mph - N/A   Clear
1:35 AM 35.6 °F 28.6 °F 24.8 °F 65% 29.80 in 10.0 mi ESE 9.2 mph - N/A   Clear
1:55 AM 33.8 °F 26.4 °F 21.2 °F 60% 29.80 in 10.0 mi East 9.2 mph - N/A   Clear
2:15 AM 33.8 °F 26.4 °F 23.0 °F 65% 29.79 in 10.0 mi ESE 9.2 mph - N/A   Clear
2:35 AM 35.6 °F 27.5 °F 24.8 °F 65% 29.78 in 10.0 mi ESE 11.5 mph - N/A   Clear
2:55 AM 35.6 °F 27.5 °F 24.8 °F 65% 29.76 in 10.0 mi SE 11.5 mph - N/A   Clear
3:15 AM 35.6 °F 27.1 °F 24.8 °F 65% 29.74 in 10.0 mi SE 12.7 mph - N/A   Clear
3:35 AM 35.6 °F 27.1 °F 24.8 °F 65% 29.72 in 10.0 mi SE 12.7 mph - N/A   Clear
3:55 AM 37.4 °F 30.8 °F 24.8 °F 60% 29.72 in 10.0 mi SE 9.2 mph - N/A   Clear
4:15 AM 37.4 °F 31.4 °F 24.8 °F 60% 29.71 in 10.0 mi SSE 8.1 mph - N/A   Clear
4:35 AM 35.6 °F 29.2 °F 24.8 °F 65% 29.72 in 10.0 mi SE 8.1 mph - N/A   Clear
4:55 AM 35.6 °F 28.0 °F 24.8 °F 65% 29.71 in 10.0 mi SE 10.4 mph - N/A   Clear
5:15 AM 35.6 °F 28.6 °F 24.8 °F 65% 29.69 in 10.0 mi SE 9.2 mph - N/A   Clear
5:35 AM 33.8 °F 25.8 °F 26.6 °F 75% 29.68 in 10.0 mi SE 10.4 mph - N/A   Clear
5:55 AM 37.4 °F 32.1 °F 26.6 °F 65% 29.68 in 10.0 mi SSE 6.9 mph - N/A   Clear
6:15 AM 37.4 °F 29.8 °F 26.6 °F 65% 29.67 in 10.0 mi SSE 11.5 mph - N/A   Clear
6:35 AM 37.4 °F 32.1 °F 28.4 °F 70% 29.68 in 10.0 mi SSE 6.9 mph - N/A   Clear
6:55 AM 35.6 °F 30.7 °F 26.6 °F 70% 29.69 in 10.0 mi SSE 5.8 mph - N/A   Clear
7:15 AM 37.4 °F 32.1 °F 28.4 °F 70% 29.70 in 10.0 mi SSE 6.9 mph - N/A   Clear
7:35 AM 35.6 °F 30.7 °F 28.4 °F 75% 29.69 in 10.0 mi SSE 5.8 mph - N/A   Clear
7:55 AM 33.8 °F 27.7 °F 28.4 °F 81% 29.69 in 10.0 mi SSE 6.9 mph - N/A   Clear
8:15 AM 35.6 °F 30.7 °F 30.2 °F 81% 29.68 in 10.0 mi SSE 5.8 mph - N/A   Clear
8:55 AM 39.2 °F 34.2 °F 33.8 °F 81% 29.68 in 10.0 mi SSE 6.9 mph - N/A   Clear
9:35 AM 44.6 °F 39.7 °F 39.2 °F 81% 29.68 in 10.0 mi SSW 9.2 mph - N/A   Clear
9:55 AM 46.4 °F 40.7 °F 39.2 °F 76% 29.68 in 10.0 mi SSW 12.7 mph - N/A   Clear
10:15 AM 48.2 °F - 39.2 °F 71% 29.67 in 10.0 mi SSW 12.7 mph 19.6 mph N/A   Clear
10:35 AM 48.2 °F - 39.2 °F 71% 29.68 in 10.0 mi SSW 16.1 mph - N/A   Clear
10:55 AM 50.0 °F - 39.2 °F 66% 29.67 in 10.0 mi SSW 12.7 mph - N/A   Clear
11:15 AM 50.0 °F - 41.0 °F 71% 29.67 in 10.0 mi SSW 12.7 mph - N/A   Clear
11:35 AM 50.0 °F - 41.0 °F 71% 29.67 in 10.0 mi SSW 11.5 mph - N/A   Clear
11:55 AM 51.8 °F - 41.0 °F 67% 29.67 in 10.0 mi SW 10.4 mph - N/A   Clear
12:35 PM 51.8 °F - 39.2 °F 62% 29.68 in 10.0 mi WSW 6.9 mph - N/A   Clear
12:55 PM 51.8 °F - 41.0 °F 67% 29.67 in 10.0 mi WSW 9.2 mph - N/A   Clear
1:15 PM 53.6 °F - 39.2 °F 58% 29.67 in 10.0 mi SSW 5.8 mph - N/A   Clear
1:35 PM 53.6 °F - 41.0 °F 62% 29.67 in 10.0 mi Calm Calm - N/A   Clear
1:55 PM 55.4 °F - 39.2 °F 54% 29.67 in 10.0 mi Calm Calm - N/A   Clear
2:15 PM 55.4 °F - 39.2 °F 54% 29.66 in 10.0 mi WSW 5.8 mph - N/A   Clear
2:35 PM 55.4 °F - 39.2 °F 54% 29.67 in 10.0 mi West 9.2 mph - N/A   Clear
2:55 PM 57.2 °F - 41.0 °F 55% 29.67 in 10.0 mi West 8.1 mph - N/A   Clear
3:35 PM 57.2 °F - 39.2 °F 51% 29.68 in 10.0 mi WNW 9.2 mph - N/A   Clear
3:55 PM 57.2 °F - 37.4 °F 48% 29.68 in 10.0 mi NW 9.2 mph - N/A   Clear
4:15 PM 57.2 °F - 37.4 °F 48% 29.68 in 10.0 mi NW 11.5 mph - N/A   Clear
4:35 PM 57.2 °F - 37.4 °F 48% 29.69 in 10.0 mi NW 11.5 mph - N/A   Clear
4:55 PM 57.2 °F - 37.4 °F 48% 29.70 in 10.0 mi NW 11.5 mph - N/A   Clear
5:15 PM 55.4 °F - 37.4 °F 51% 29.70 in 10.0 mi North 11.5 mph - N/A   Clear
5:35 PM 55.4 °F - 37.4 °F 51% 29.71 in 10.0 mi NNW 11.5 mph - N/A   Clear
5:55 PM 55.4 °F - 37.4 °F 51% 29.72 in 10.0 mi NNW 9.2 mph - N/A   Clear
6:15 PM 53.6 °F - 37.4 °F 54% 29.72 in 10.0 mi NNW 6.9 mph - N/A   Clear
6:35 PM 51.8 °F - 37.4 °F 58% 29.73 in 10.0 mi NW 11.5 mph - N/A   Clear
7:35 PM 44.6 °F 41.4 °F 35.6 °F 71% 29.77 in 10.0 mi NNW 5.8 mph - N/A   Clear
7:55 PM 42.8 °F 38.0 °F 35.6 °F 76% 29.77 in 10.0 mi NW 8.1 mph - N/A   Clear
9:15 PM 39.2 °F 34.2 °F 33.8 °F 81% 29.81 in 10.0 mi NW 6.9 mph - N/A   Clear
9:35 PM 42.8 °F 39.3 °F 33.8 °F 70% 29.81 in 10.0 mi NNW 5.8 mph - N/A   Clear
9:55 PM 42.8 °F 38.0 °F 33.8 °F 70% 29.82 in 10.0 mi NNW 8.1 mph - N/A   Clear
10:15 PM 42.8 °F 37.0 °F 33.8 °F 70% 29.81 in 10.0 mi NNW 10.4 mph - N/A   Clear
11:15 PM 39.2 °F 32.5 °F 32.0 °F 75% 29.84 in 10.0 mi NNW 10.4 mph - N/A   Clear
11:35 PM 41.0 °F 35.8 °F 32.0 °F 70% 29.84 in 10.0 mi NNW 8.1 mph - N/A   Clear